Regional Weather Roundup
Issued by NWS Pendleton, OR

Home | Current Version | Previous Version | Text Only | Print | Product List | Glossary On
Versions: 1 2 3 4 5 6 7 8 9 10 11 12 13 14 15 16 17 18 19 20 21 22 23 24 25 26 27 28 29 30 31 32 33 34 35 36 37 38 39 40 41 42 43 44 45 46 47 48 49 50
000
ASUS46 KPDT 280710
RWRPDT
PENDLETON REGIONAL WEATHER ROUNDUP
NATIONAL WEATHER SERVICE PENDLETON OREGON
1200 AM PDT MON JUL 28 2014

NOTE: FAIR INDICATES FEW OR NO CLOUDS BELOW 12,000 FEET WITH NO
SIGNIFICANT WEATHER AND/OR OBSTRUCTIONS TO VISIBILITY.

# INDICATES UNOFFICIAL STATION AND DATA

WAZ520-280810-
EAST SLOPES OF WASHINGTON CASCADES

CITY            SKY/WX      TMP DP  RH  WIND    PRES   REMARKS
#BUMPING DAM    N/A         63  N/A N/A NW7     N/A
#CLE ELUM HS    N/A         69  57  66  W2      30.05R
#CLE ELUM LAKE  N/A         67  55  65  CALM    29.98S
#CLIFFDEL 2NW   N/A         69  55  61  CALM    N/A
#EASTON DOT     N/A         65  52  63  E1      N/A
#ELK HTS DOT    N/A         71  71  100 W7      N/A
#GLENWOOD       N/A         61  57  87  CALM    29.99F
#MANASTASH CYN  N/A         67  48  50  CALM    30.10F
#NELSON         N/A         68  59  73  CALM    30.02R
#NELSON 3SW     N/A         62  54  75  CALM    30.20R
#PEOH POINT     N/A         67  53  61  W9      N/A
#RONALD 2NW     N/A         67  54  63  NE1     30.02R
#TROUT LAKE 1NE N/A         66  58  75  NW1     30.00S
$$

WAZ521-280810-
SIMCOE HIGHLANDS

CITY            SKY/WX      TMP DP  RH  WIND    PRES   REMARKS
#BICKLETON HS   N/A         71  30  22  N6      30.15S
#CENTERVILLE 1SWN/A         64  45  50  CALM    29.93F
#GOLDENDALE 1NE N/A         70  41  35  N2      N/A
#GOLDENDALE 1S  N/A         70  49  47  CALM    30.02F
#GOLDENDALE 5WNWN/A         70  48  46  CALM    29.95S
#GOODNOE HILLS  N/A         83  47  28  W7      29.95S
#LYLE 6NE       N/A         70  62  76  SE3     29.95S
$$

WAZ026-280810-
KITTITAS VALLEY

CITY            SKY/WX      TMP DP  RH  WIND    PRES   REMARKS
ELLENSBURG AP   MOCLDY      75  58  56  NW10    30.06S
#ELLENSBURG CWU N/A         72  59  64  NW2     29.92S
#ELLENSBURG 3NE N/A         73  57  57  NW2     30.06R
#ELLENSBURG 1E  N/A         71  56  59  CALM    N/A
#KITTITAS 3S    N/A         65  60  84  CALM    29.96R
#RYEGRASS DOT   N/A         74  44  34  SW6     N/A
#THORP 6N       N/A         70  56  61  N7      30.00S
$$

WAZ027-280810-
YAKIMA VALLEY

CITY            SKY/WX      TMP DP  RH  WIND    PRES   REMARKS
YAKIMA AIRPORT  MOCLDY      70  50  49  SW3     30.03R
YAKIMA-VAGABOND MOCLDY      75  44  33  E3      30.05R
#COWICHE 1N     N/A         74  54  50  NW5     30.18S
#DONALD 2NE     N/A         79  41  26  CALM    30.33S
#GRANDVIEW      N/A         76  61  60  CALM    29.96S
#MABTON         N/A         76  61  60  CALM    29.98S
#MOXEE 2E       N/A         73  42  33  CALM    29.94R
#NACHES 2SW     N/A         74  58  57  W3      30.07S
#TERRACE HTS    N/A         74  49  41  CALM    29.93S
#TOPPENISH      N/A         74  62  66  N1      29.87S
#WAPATO 4NE     N/A         79  41  26  CALM    30.33S
#WEST VALLEY    N/A         72  52  49  CALM    29.95S
#W YAKIMA       N/A         76  52  43  NW2     29.96S
#WHITE SWAN 5E  N/A         72  51  48  NW3     29.96S
#WILEY CITY 3W  N/A         75  58  56  CALM    30.02S
$$

WAZ028-280810-
LOWER COLUMBIA BASIN...WASHINGTON

CITY            SKY/WX      TMP DP  RH  WIND    PRES   REMARKS
PASCO           CLOUDY      76  55  48  E6      29.96S
PROSSER AWOS    N/A         73  63  71  W3      30.00F
RICHLAND AWOS   CLOUDY      81  48  32  E3      29.94S
#BASIN CITY 5SW N/A         75  53  46  N3      29.97F
#BENTON CITY    N/A         78  54  43  W2      29.83F
#CONNELL 5N     N/A         79  41  26  N3      29.96R
#CONNELL 5NW    N/A         77  46  33  N7      29.92R
#ELTOPIA        N/A         76  48  37  CALM    29.89F
#ELTOPIA 6NW    N/A         89  44  21  NW7     28.94F
#KENNEWICK 3S   N/A         83  46  27  CALM    29.94S
#PASCO-BROADMOORN/A         82  46  28  E2      29.82F
#PATERSON       N/A         79  53  41  CALM    29.91S
#PROSSER DOT    N/A         76  61  60  CALM    N/A
#PROSSER        N/A         82  47  29  S5      29.93F
#SAGEMOOR 2W    N/A         81  49  33  CALM    29.78F
#TOUCHET 2S     N/A         67  52  59  CALM    29.93S
#WEST PASCO     N/A         79  50  36  CALM    29.93S
$$

WAZ029-280810-
FOOTHILLS OF THE BLUES...WASHINGTON

CITY            SKY/WX      TMP DP  RH  WIND    PRES   REMARKS
WALLA WALLA AP  PTCLDY      73  47  40  E6      30.02S
#COLLEGE PLACE  N/A         79  47  32  E1      29.98S
#DAYTON SCHOOL  N/A         71  43  36  CALM    30.03S
#LOWDEN 2SE     N/A         70  53  55  E2      29.93F
#PLEASANT VIEW 1N/A         80  38  22  CALM    29.97S
#PRESCOTT       N/A         74  49  41  CALM    29.93S
#SUDBURY        N/A         69  N/A N/A CALM    N/A
#WHITMAN COLLEGEN/A         78  48  35  E3      30.00S
#WAITSBURG 8N   N/A         73  24  16  CALM    29.88R
#WALLA WALLA 5E N/A         70  45  41  S15     N/A
#WALLA WALLA U  N/A         79  49  35  CALM    29.95R
#WHITMAN MISSIONN/A         71  55  57  CALM    29.95F
$$

WAZ030-280810-
BLUE MOUNTAINS...WASHINGTON

CITY            SKY/WX      TMP DP  RH  WIND    PRES   REMARKS
$$

ORZ009-041-WAZ024-280810-
COLUMBIA RIVER GORGE

CITY            SKY/WX      TMP DP  RH  WIND    PRES   REMARKS
HOOD RIVER AP   PTCLDY      68  59  73  CALM    30.03S
THE DALLES AP   MOCLDY      76  61  60  W6      29.98S
#ARLINGTON AIRPON/A         82  46  28  SW3     N/A
#ARLINGTON HS   N/A         80  45  29  CALM    29.84S
#CELILO DOT     N/A         78  58  50  CALM    N/A
#MARYHILL       N/A         79  46  31  CALM    N/A
#MOSIER 1S      N/A         70  55  59  CALM    30.09S
#MURDOCK        N/A         78  64  62  NW12    29.99R
#RUFUS DOT      N/A         79  57  47  NW8     N/A

$$

ORZ510-280810-
NORTH CENTRAL OREGON

CITY            SKY/WX      TMP DP  RH  WIND    PRES   REMARKS
#CHENOWITH 1W   N/A         70  60  71  W16     N/A
#COW CYN RST AREN/A         74  38  27  N3      N/A
#DUFUR 9E       N/A         77  48  36  W5      29.99S
#GRASS VALLEY 1SN/A         72  42  34  CALM    29.97R
#KENT DOT       N/A         74  33  22  N3      N/A
#MAUPIN SCHOOL  N/A         74  55  51  CALM    30.05R
#MORO SCHOOL    N/A         76  54  46  W7      30.06S
#SHANIKO 5WSW   N/A         72  33  24  NE8     N/A
#SHANIKO 4NW    N/A         72  35  26  N5      30.17S
#TYGH VALLEY 2NEN/A         72  51  48  CALM    29.96S
#WAPANITIA AIRPON/A         68  50  53  NW1     29.98S
#WASCO DOT      N/A         65  41  41  SE2     N/A
#WASCO 5NE      N/A         72  49  44  CALM    29.95S
$$

ORZ511-280810-
CENTRAL OREGON

CITY            SKY/WX      TMP DP  RH  WIND    PRES   REMARKS
BEND AIRPORT    PTCLDY      68  43  40  W7      30.17S
MADRAS AIRPORT  PTCLDY      66  39  37  CALM    30.11F
REDMOND AIRPORT PTCLDY      63  40  43  NW3     30.13S
#BEND 6E        N/A         66  41  40  CALM    29.91S
#BEND 1SW       N/A         60  40  47  S1      N/A
#BEND-AWBREY    N/A         69  44  40  CALM    29.99S
#BEND-KIM LN    N/A         69  46  44  CALM    30.14F
#CROOKED RVR RANN/A         73  45  37  CALM    29.97R
#CULVER         N/A         66  46  48  CALM    30.08R
#LAKE BILLY CHINN/A         73  13  10  CALM    30.14R
#POWELL BUTTE   N/A         71  41  34  SW3     29.79R
#PRINEVILLE 3N  N/A         63  51  65  CALM    29.92S


ORZ509-280810-
EAST SLOPES OF OREGON CASCADES

CITY            SKY/WX      TMP DP  RH  WIND    PRES   REMARKS
#BLUE BOX PASS  N/A         64  10  12  N3      N/A
#BLACK BUTTE RNCN/A         62  52  70  CALM    30.01R
#CAMP SHERMAN   N/A         59  50  72  CALM    30.01R
#LA PINE DOT    N/A         65  35  33  NW3     N/A
#LA PINE 4NW    N/A         60  43  53  CALM    30.04R
#LAVA BUTTE DOT N/A         59  39  47  CALM    N/A
#SISTERS AIRPOR N/A         65  56  73  CALM    30.13F
#SISTERS ODOT   N/A         63  N/A N/A CALM    N/A
#SISTERS 3N     N/A         61  46  58  CALM    N/A
#SUNRIVER       N/A         60  46  60  CALM    29.89S
#SUNRIVER AP    N/A         59  46  62  CALM    29.96S
#TUMALO 3W      N/A         72  44  37  W5      29.86F
#WANOGA BUTTE D N/A         62  38  41  N2      N/A

$$

ORZ044-280810-
LOWER COLUMBIA BASIN...OREGON

CITY            SKY/WX      TMP DP  RH  WIND    PRES   REMARKS
HERMISTON       CLOUDY      79  42  27  SE6     29.97R
#BOARDMAN SCHOOLN/A         78  61  56  CALM    29.92F
#BOARDMAN 3W    N/A         72  57  59  SW2     29.65S
#BOARDMAN 8SW   N/A         79  51  38  S5      29.93F
#IONE SCHOOL    N/A         80  40  24  NW1     29.98F
#IRRIGON 4NW    N/A         76  57  52  S3      N/A
#UMATILLA SCHOOLN/A         79  61  54  CALM    30.02F
#UMATILLA       N/A         81  52  37  CALM    29.93R
$$

ORZ507-280810-
NORTHERN FOOTHILLS OF THE BLUES

CITY            SKY/WX      TMP DP  RH  WIND    PRES   REMARKS
PENDLETON AIRPT MOCLDY      74  40  29  E9      30.02F
#ADAMS 3WNW     N/A         70  42  36  NE1     29.95F
#ATHENA         N/A         69  44  40  CALM    29.98F
#HELIX SCHOOL   N/A         72  40  31  NE1     29.96S
#HELIX 3N       N/A         74  37  26  CALM    30.02F
#HOLDMAN 5SE    N/A         74  40  29  CALM    30.02F
#HOLDMAN 6E     N/A         70  40  34  CALM    29.78F
#M-F FERNDALE   N/A         73  47  40  CALM    29.98F
#M-F GROVE ELEM N/A         76  45  33  CALM    30.00F
#M-FREEWATER 5SEN/A         75  54  48  E3      30.02S
#PDT AQUATIC CTRN/A         77  44  31  E2      29.98S
#PENDLETON DNTN N/A         77  43  30  CALM    29.98S
#PENDLETON 5NE  N/A         72  45  38  CALM    29.97F
#PDT SUNRIDGE   N/A         75  45  34  CALM    30.02S
#PENDLETON 7NW  N/A         76  46  34  CALM    28.82R
#PILOT ROCK     N/A         74  40  29  SE7     30.06F
#TUTUILLA       N/A         72  47  41  S1      29.91S
#UMAPINE 2E     N/A         69  55  61  CALM    29.95S
#WESTON SCHOOL  N/A         73  38  28  CALM    30.03F

$$

ORZ508-280810-
SOUTHERN FOOTHILLS OF THE BLUES

CITY            SKY/WX      TMP DP  RH  WIND    PRES   REMARKS
#AJAX           N/A         N/A N/A N/A NW1     30.10S
#CONDON SCHOOL  N/A         75  41  29  W7      30.09R
#CONDON 5W      N/A         75  35  23  NW2     30.13R
#HEPPNER EOC    N/A         77  40  26  CALM    29.92R
#HEPPNER 4NE    N/A         77  37  24  E6      29.96S
#LEXINGTON 2SE  N/A         80  45  29  SE2     29.99F
#MIKKALO        N/A         72  36  27  E1      30.04S
#OLEX 4N        N/A         76  41  28  SW3     29.98S
#RUGGS 5NE      N/A         73  36  26  E1      30.27S
#RUGGS 2SW      N/A         75  40  28  SW7     30.01S

$$

ORZ502-503-280810-
BLUE MOUNTAINS

CITY            SKY/WX      TMP DP  RH  WIND    PRES   REMARKS
MEACHAM         PTCLDY      60  47  62  CALM    30.18F
#BATTLE MTN DOT N/A         69  44  40  CALM    N/A
#HARDMAN 10S    N/A         70  40  34  CALM    30.24S
#HEPPNER 15SE   N/A         65  40  40  SE2     30.14R
#LADD CYN SMT   N/A         74  35  24  W8      N/A
#LADD CREEK ODOTN/A         77  46  33  S7      N/A
#LONG CREEK HS  N/A         71  43  36  SW3     30.13S
#PIKES PEAK     N/A         78  40  26  N1      27.99S
#TOLLGATE       N/A         64  42  45  CALM    30.16S
#TROY SCHOOL    N/A         75  52  45  CALM    29.81R
#UKIAH          N/A         66  45  47  N2      30.05R
#WESTON 4E      N/A         73  40  30  E2      29.91S
$$

ORZ505-280810-
JOHN DAY BASIN

CITY            SKY/WX      TMP DP  RH  WIND    PRES   REMARKS
JOHN DAY        MOCLDY      76  39  26  SW3     30.18S
#JOHN DAY KJDY  N/A         73  52  48  CALM    30.11S
#MONUMENT HS    N/A         76  41  28  N5      29.82F
#MT. VERNON 5SE N/A         75  39  27  CALM    30.15S
#WINLOCK        N/A         72  42  34  CALM    30.19F
$$

ORZ506-280810-
OCHOCO AND JOHN DAY HIGHLANDS

CITY            SKY/WX      TMP DP  RH  WIND    PRES   REMARKS
#BUCK CREEK DOT N/A         77  46  33  NW5     N/A
#HORSE RIDGE DO N/A         67  39  36  N1      N/A
#KEYES SMT DOT  N/A         73  38  28  SE7     N/A
#PINE MTN OBS   N/A         63  38  39  NW6     N/A
#PRAIRIE CITY   N/A         61  47  60  CALM    30.10R
#SENECA 9NW     N/A         66  39  37  CALM    29.95F
$$

ORZ049-280810-
GRANDE RONDE VALLEY

CITY            SKY/WX      TMP DP  RH  WIND    PRES   REMARKS
LA GRANDE       PTCLDY      79  37  22  N9      30.09R
#COVE           N/A         68  52  57  S1      30.01R
#COVE SCHOOL    N/A         68  50  53  E1      30.07R
#COVE 6NW       N/A         72  46  39  CALM    29.99R
#ELGIN 3N       N/A         70  44  39  CALM    29.82S
#ELGIN 1E       N/A         72  48  43  CALM    N/A
#IMBLER SCHOOL  N/A         75  47  37  CALM    30.05R
#ISLAND CITY 4N N/A         67  49  52  SW3     29.90R
#LADD CYN DOT   N/A         81  44  27  SW2     N/A
#UNION 1S       N/A         73  46  38  CALM    29.86R
$$

ORZ050-280810-
WALLOWA COUNTY

CITY            SKY/WX      TMP DP  RH  WIND    PRES   REMARKS
#ENTERPRISE AP  N/A         66  35  32  CALM    29.99S
#ENTERPRISE HS  N/A         65  49  56  CALM    30.15R
#IMNAHA SCHOOL  N/A         84  34  17  CALM    29.99R
#IMNAHA 10S     N/A         76  41  28  SW7     30.08R
#JOSEPH 3N      N/A         61  50  67  SE1     30.18S
#JOSEPH 3W      N/A         70  38  31  CALM    30.05S
#LOSTINE        N/A         66  47  50  CALM    29.76S
#MT HOWARD 8000 N/A         63  33  32  CALM    30.48F
#PROMISE 1S     N/A         70  45  41  CALM    30.04R
#SHEEP RDG 7000 N/A         66  34  30  CALM    29.93S
#WALLOWA SCHOOL N/A         67  53  61  CALM    30.83S



$$



USA.gov is the U.S. government's official web portal to all federal, state and local government web resources and services.